| time (UTC) | temp C | wind direction | speed KPH | gust KPH | rain 1hr cm | rain 24hr cm | rain mn cm | humidity % | barometer mb |
| 20260509070029 | 12 | 133 | 3.2 | 12.9 | 0.00 | 0.00 | 0.00 | 77 | 1012.7 |
| 20260509064608 | 12 | 85 | 1.6 | 6.4 | 0.00 | 0.00 | 0.00 | 76 | 1012.7 |
| 20260509063039 | 12 | 152 | 1.6 | 8.0 | 0.00 | 0.00 | 0.00 | 75 | 1012.7 |
| 20260509061507 | 12 | 165 | 1.6 | 8.0 | 0.00 | 0.00 | 0.00 | 74 | 1012.7 |
| 20260509054520 | 13 | 96 | 3.2 | 11.3 | 0.00 | 0.00 | 0.00 | 72 | 1012.9 |
| 20260509053104 | 12 | 139 | 3.2 | 8.0 | 0.00 | 0.00 | 0.00 | 70 | 1013.0 |
| 20260509051534 | 12 | 85 | 1.6 | 9.7 | 0.00 | 0.00 | 0.00 | 69 | 1013.1 |
| 20260509050014 | 12 | 93 | 3.2 | 11.3 | 0.00 | 0.00 | 0.00 | 70 | 1013.0 |
| 20260509044551 | 12 | 141 | 1.6 | 9.7 | 0.00 | 0.00 | 0.00 | 72 | 1013.1 |
| 20260509043018 | 12 | 119 | 3.2 | 11.3 | 0.00 | 0.00 | 0.00 | 73 | 1013.2 |
| 20260509041601 | 12 | 86 | 3.2 | 11.3 | 0.00 | 0.00 | 0.00 | 73 | 1013.2 |
| 20260509040031 | 12 | 110 | 3.2 | 12.9 | 0.00 | 0.00 | 0.00 | 72 | 1013.3 |
| 20260509034611 | 12 | 145 | 1.6 | 9.7 | 0.00 | 0.00 | 0.00 | 71 | 1013.4 |
| 20260509033040 | 12 | 90 | 3.2 | 9.7 | 0.00 | 0.00 | 0.00 | 73 | 1013.2 |
| 20260509031513 | 12 | 94 | 3.2 | 9.7 | 0.00 | 0.00 | 0.00 | 74 | 1013.2 |
| 20260509030052 | 12 | 72 | 3.2 | 9.7 | 0.00 | 0.00 | 0.00 | 74 | 1013.1 |
| 20260509024526 | 12 | 60 | 1.6 | 11.3 | 0.00 | 0.00 | 0.00 | 74 | 1013.1 |
| 20260509023105 | 12 | 141 | 3.2 | 12.9 | 0.00 | 0.00 | 0.00 | 74 | 1013.1 |
| 20260509021539 | 12 | 96 | 4.8 | 11.3 | 0.00 | 0.00 | 0.00 | 74 | 1013.3 |
| 20260509020009 | 12 | 56 | 3.2 | 11.3 | 0.00 | 0.00 | 0.00 | 73 | 1013.2 |
| 20260509014552 | 13 | 79 | 3.2 | 9.7 | 0.00 | 0.00 | 0.00 | 74 | 1013.1 |
| 20260509013034 | 13 | 81 | 3.2 | 12.9 | 0.00 | 0.00 | 0.00 | 75 | 1013.1 |
| 20260509011609 | 13 | 99 | 3.2 | 12.9 | 0.00 | 0.00 | 0.00 | 74 | 1012.9 |
| 20260509010038 | 13 | 87 | 3.2 | 12.9 | 0.00 | 0.00 | 0.00 | 72 | 1012.6 |
| 20260509004506 | 13 | 68 | 3.2 | 12.9 | 0.00 | 0.00 | 0.00 | 69 | 1012.4 |
| 20260509003045 | 13 | 150 | 4.8 | 14.5 | 0.00 | 0.00 | 0.00 | 66 | 1012.3 |
| 20260509001513 | 13 | 94 | 4.8 | 14.5 | 0.00 | 0.00 | 0.00 | 63 | 1012.2 |
| 20260509000058 | 13 | 72 | 3.2 | 14.5 | 0.00 | 0.00 | 0.00 | 64 | 1012.2 |
| 20260508234526 | 13 | 79 | 4.8 | 12.9 | 0.00 | 0.00 | 0.00 | 63 | 1012.1 |
| 20260508233107 | 13 | 103 | 4.8 | 17.7 | 0.00 | 0.00 | 0.00 | 64 | 1011.9 |
| 20260508231537 | 13 | 149 | 3.2 | 16.1 | 0.00 | 0.00 | 0.00 | 65 | 1011.8 |
| 20260508230017 | 14 | 116 | 4.8 | 17.7 | 0.00 | 0.00 | 0.00 | 66 | 1011.8 |
| 20260508224600 | 13 | 169 | 4.8 | 17.7 | 0.00 | 0.00 | 0.00 | 68 | 1011.7 |
| 20260508223030 | 13 | 174 | 3.2 | 17.7 | 0.00 | 0.00 | 0.00 | 65 | 1011.6 |
| 20260508221606 | 14 | 189 | 6.4 | 17.7 | 0.00 | 0.00 | 0.00 | 63 | 1011.6 |
| 20260508220032 | 14 | 58 | 6.4 | 14.5 | 0.00 | 0.00 | 0.00 | 60 | 1011.7 |
| 20260508214606 | 14 | 143 | 6.4 | 12.9 | 0.00 | 0.00 | 0.00 | 60 | 1011.7 |
| 20260508213042 | 15 | 98 | 4.8 | 19.3 | 0.00 | 0.00 | 0.00 | 58 | 1011.9 |
| 20260508211506 | 15 | 70 | 1.6 | 11.3 | 0.00 | 0.00 | 0.00 | 56 | 1011.9 |
| 20260508210048 | 15 | 118 | 4.8 | 14.5 | 0.00 | 0.00 | 0.00 | 54 | 1012.0 |
| 20260508204519 | 15 | 61 | 3.2 | 19.3 | 0.00 | 0.00 | 0.00 | 55 | 1012.1 |
| 20260508203114 | 15 | 162 | 3.2 | 12.9 | 0.00 | 0.00 | 0.00 | 52 | 1012.3 |
| 20260508201530 | 16 | 166 | 3.2 | 9.7 | 0.00 | 0.00 | 0.00 | 51 | 1012.5 |
| 20260508200105 | 16 | 216 | 4.8 | 12.9 | 0.00 | 0.00 | 0.00 | 47 | 1012.5 |
| 20260508194535 | 17 | 177 | 4.8 | 11.3 | 0.00 | 0.03 | 0.00 | 44 | 1012.5 |
| 20260508193002 | 17 | 108 | 4.8 | 12.9 | 0.00 | 0.03 | 0.00 | 47 | 1012.6 |
| 20260508191544 | 17 | 81 | 3.2 | 16.1 | 0.00 | 0.03 | 0.00 | 48 | 1012.6 |
| 20260508190027 | 17 | 36 | 4.8 | 14.5 | 0.00 | 0.03 | 0.00 | 52 | 1012.7 |
| 20260508184622 | 17 | 67 | 4.8 | 17.7 | 0.00 | 0.03 | 0.00 | 51 | 1012.9 |
| 20260508183023 | 17 | 70 | 3.2 | 19.3 | 0.00 | 0.03 | 0.00 | 50 | 1012.9 |
| 20260508181603 | 19 | 56 | 3.2 | 16.1 | 0.00 | 0.03 | 0.00 | 50 | 1012.8 |
| 20260508180032 | 21 | 174 | 1.6 | 8.0 | 0.00 | 0.03 | 0.00 | 33 | 1012.9 |
| 20260508174619 | 21 | 68 | 1.6 | 8.0 | 0.00 | 0.03 | 0.00 | 34 | 1012.9 |
| 20260508173044 | 20 | 68 | 1.6 | 12.9 | 0.00 | 0.03 | 0.00 | 38 | 1013.2 |
| 20260508171517 | 20 | 79 | 1.6 | 8.0 | 0.00 | 0.03 | 0.00 | 35 | 1013.2 |
| 20260508170052 | 20 | 48 | 1.6 | 8.0 | 0.00 | 0.03 | 0.00 | 33 | 1013.5 |
| 20260508164524 | 20 | 79 | 1.6 | 8.0 | 0.00 | 0.03 | 0.00 | 35 | 1013.7 |
| 20260508163059 | 20 | 66 | 1.6 | 9.7 | 0.00 | 0.03 | 0.00 | 33 | 1013.9 |
| 20260508161539 | 20 | 285 | 1.6 | 8.0 | 0.00 | 0.03 | 0.00 | 34 | 1013.8 |
| 20260508160108 | 20 | 17 | 3.2 | 8.0 | 0.00 | 0.03 | 0.00 | 36 | 1013.9 |
| 20260508154541 | 20 | 347 | 1.6 | 9.7 | 0.00 | 0.03 | 0.00 | 35 | 1013.8 |
| 20260508153008 | 19 | 126 | 0.0 | 4.8 | 0.00 | 0.03 | 0.00 | 40 | 1014.0 |
| 20260508151556 | 19 | 13 | 0.0 | 4.8 | 0.00 | 0.03 | 0.00 | 37 | 1014.1 |
| 20260508150027 | 19 | 141 | 0.0 | 6.4 | 0.00 | 0.03 | 0.00 | 39 | 1014.2 |
| 20260508144604 | 19 | 345 | 0.0 | 4.8 | 0.00 | 0.03 | 0.00 | 39 | 1014.4 |
| 20260508143037 | 18 | 242 | 0.0 | 4.8 | 0.00 | 0.03 | 0.00 | 38 | 1014.4 |
| 20260508141510 | 17 | 327 | 0.0 | 3.2 | 0.00 | 0.03 | 0.00 | 40 | 1014.4 |
| 20260508140101 | 17 | 30 | 1.6 | 8.0 | 0.00 | 0.03 | 0.00 | 38 | 1014.5 |
| 20260508134525 | 17 | 91 | 0.0 | 6.4 | 0.00 | 0.03 | 0.00 | 40 | 1014.5 |
| 20260508133114 | 16 | 13 | 0.0 | 11.3 | 0.00 | 0.03 | 0.00 | 44 | 1014.6 |
| 20260508131539 | 16 | 229 | 0.0 | 3.2 | 0.00 | 0.03 | 0.00 | 46 | 1014.6 |
| 20260508130012 | 15 | 62 | 3.2 | 9.7 | 0.00 | 0.03 | 0.00 | 49 | 1014.5 |
| 20260508124550 | 14 | 41 | 0.0 | 9.7 | 0.00 | 0.03 | 0.00 | 58 | 1014.4 |
| 20260508123019 | 12 | 46 | 4.8 | 11.3 | 0.00 | 0.03 | 0.00 | 59 | 1014.3 |
| 20260508121603 | 11 | 107 | 1.6 | 8.0 | 0.00 | 0.03 | 0.00 | 65 | 1014.2 |
| 20260508120030 | 11 | 35 | 3.2 | 8.0 | 0.00 | 0.03 | 0.00 | 67 | 1014.0 |
| 20260508114615 | 10 | 23 | 3.2 | 12.9 | 0.00 | 0.03 | 0.00 | 68 | 1014.1 |
| 20260508113052 | 10 | 198 | 3.2 | 12.9 | 0.00 | 0.03 | 0.00 | 70 | 1013.7 |
| 20260508111507 | 10 | 6 | 1.6 | 9.7 | 0.00 | 0.03 | 0.00 | 72 | 1013.5 |
| 20260508110044 | 9 | 73 | 0.0 | 4.8 | 0.00 | 0.03 | 0.00 | 74 | 1013.5 |
| 20260508104512 | 9 | 33 | 0.0 | 6.4 | 0.00 | 0.03 | 0.00 | 74 | 1013.3 |
| 20260508103056 | 10 | 300 | 0.0 | 11.3 | 0.00 | 0.03 | 0.00 | 72 | 1012.9 |
| 20260508101542 | 10 | 15 | 3.2 | 12.9 | 0.00 | 0.03 | 0.00 | 73 | 1012.9 |
| 20260508100006 | 10 | 32 | 1.6 | 14.5 | 0.00 | 0.03 | 0.00 | 73 | 1012.7 |
| 20260508094543 | 10 | 349 | 3.2 | 11.3 | 0.00 | 0.03 | 0.00 | 75 | 1012.3 |
| 20260508093018 | 10 | 24 | 1.6 | 8.0 | 0.00 | 0.03 | 0.00 | 76 | 1012.0 |
| 20260508091627 | 10 | 282 | 1.6 | 6.4 | 0.00 | 0.03 | 0.00 | 77 | 1011.7 |
| 20260508090030 | 10 | 105 | 1.6 | 6.4 | 0.00 | 0.03 | 0.00 | 78 | 1011.4 |
| 20260508084606 | 10 | 309 | 1.6 | 6.4 | 0.00 | 0.03 | 0.00 | 78 | 1011.1 |
| 20260508083041 | 11 | 38 | 1.6 | 6.4 | 0.00 | 0.03 | 0.00 | 79 | 1010.9 |
| 20260508081509 | 11 | 14 | 1.6 | 8.0 | 0.00 | 0.03 | 0.00 | 79 | 1010.5 |
| 20260508080051 | 11 | 112 | 0.0 | 6.4 | 0.00 | 0.03 | 0.00 | 80 | 1010.3 |
| 20260508074511 | 11 | 155 | 0.0 | 4.8 | 0.00 | 0.05 | 0.00 | 82 | 1010.2 |
| 20260508073008 | 11 | 188 | 0.0 | 1.6 | 0.00 | 0.05 | 0.00 | 83 | 1010.0 |
| 20260508071547 | 11 | 38 | 0.0 | 1.6 | 0.00 | 0.05 | 0.00 | 83 | 1009.8 |